Simultaneous Nadir Overpasses (SNOs) Predictions

Prediction of SNOs between AQUA and NOAA-19 Satellite Orbit:

Table of predicted SNOs for the next 14.0 days since TLE Epoch: 12/21/2024
Index Date (AQUA) Time (AQUA) Lat,Lon (AQUA) SZA (AQUA ) Date (NOAA-19) Time (NOAA-19) Lat,Lon (NOAA-19) SZA (NOAA-19 ) Distance(km) Time Diff (sec)
1 12/22/2024 07:21:36 75.63, 71.25 98.99 12/22/2024 07:21:29 75.63, 71.23 98.99 0.69 7
2 12/24/2024 09:30:19 -75.21,-139.72 81.45 12/24/2024 09:29:12 -75.09,-142.32 81.59 75.35 67
3 12/24/2024 10:19:48 75.64, 26.73 98.96 12/24/2024 10:19:59 75.64, 26.70 98.97 1.26 11
4 12/26/2024 12:28:37 -75.57, 174.77 81.18 12/26/2024 12:27:32 -75.58, 174.66 81.16 3.29 65
5 12/26/2024 13:17:59 75.65, -17.80 98.91 12/26/2024 13:18:29 75.65, -17.86 98.91 1.75 30
6 12/28/2024 15:26:47 -75.59, 130.22 81.26 12/28/2024 15:26:02 -75.61, 130.16 81.24 2.72 45
7 12/28/2024 16:16:09 75.67, -62.35 98.82 12/28/2024 16:16:58 75.69, -62.30 98.84 2.69 49
8 12/30/2024 18:24:56 -75.61, 85.66 81.38 12/30/2024 18:24:32 -75.62, 85.62 81.37 1.24 24
9 12/30/2024 19:14:18 75.70,-106.92 98.71 12/30/2024 19:15:28 75.67,-106.93 98.69 2.46 70
10 01/01/2025 21:23:04 -75.65, 41.08 81.52 01/01/2025 21:23:02 -75.62, 41.05 81.54 3.15 2
11 01/03/2025 23:31:47 75.43,-170.43 98.07 01/03/2025 23:30:36 75.38,-171.55 98.02 31.63 71
12 01/04/2025 00:21:10 -75.64, -3.38 81.73 01/04/2025 00:21:31 -75.66, -3.40 81.71 2.02 21



Historial Predications of SNOs between AQUA and NOAA-19
